Date,TemperatureHighF,TemperatureAvgF,TemperatureLowF,DewpointHighF,DewpointAvgF,DewpointLowF,HumidityHigh,HumidityAvg,HumidityLow,PressureMaxIn,PressureMinIn,WindSpeedMaxMPH,WindSpeedAvgMPH,GustSpeedMaxMPH,PrecipitationSumIn
2013-1-1,19,12,3,18,11,3,98,96,92,29.07,28.87,9,2,0,0.00
2013-1-2,34,24,11,33,23,11,99,97,94,28.98,28.80,8,3,0,0.00
2013-1-3,31,24,17,30,23,17,98,96,94,29.18,28.98,13,6,0,0.00
2013-1-4,29,20,14,26,19,14,100,96,90,29.07,28.90,11,4,0,0.00
2013-1-5,32,23,16,30,22,16,100,96,90,28.97,28.77,15,6,0,0.00
2013-1-6,30,22,13,28,22,13,100,96,92,29.08,28.88,16,4,0,0.00
2013-1-7,37,31,19,35,30,19,100,94,90,28.88,28.73,17,5,0,0.00
2013-1-8,36,27,15,34,26,15,100,97,93,28.88,28.61,15,3,0,0.00
2013-1-9,40,31,22,37,30,22,100,96,88,29.18,28.88,9,1,0,0.00
2013-1-10,39,35,28,37,34,28,100,96,82,29.10,28.46,13,4,0,0.00
2013-1-11,49,39,27,49,39,26,100,100,94,28.49,28.17,24,6,0,0.00
2013-1-12,33,19,12,31,17,10,94,89,83,28.91,28.49,24,10,0,0.00
2013-1-13,21,14,8,16,11,7,95,90,79,29.08,28.90,14,6,0,0.00
2013-1-14,27,17,8,22,15,8,98,92,78,29.21,29.08,8,2,0,0.00
2013-1-15,34,23,14,30,21,14,99,92,83,29.10,28.82,12,5,0,0.00
2013-1-16,51,35,22,43,32,21,97,90,72,29.00,28.68,11,6,0,0.00
2013-1-17,34,29,25,33,29,25,100,100,96,29.21,29.00,6,0,0,0.00
2013-1-18,47,37,29,41,35,29,100,92,80,29.05,28.66,16,6,0,0.00
2013-1-19,52,38,23,43,35,21,98,88,71,29.11,28.64,16,6,0,0.00
2013-1-20,23,18,14,21,15,13,96,90,82,29.18,29.08,13,4,0,0.00
2013-1-21,16,11,6,15,7,2,96,83,75,29.21,29.11,15,6,0,0.00
2013-1-22,20,14,10,18,13,8,98,95,87,29.13,29.00,8,3,0,0.00
2013-1-23,29,18,11,26,17,9,98,94,86,29.26,28.91,13,5,0,0.00
2013-1-24,19,10,3,15,7,1,92,87,79,29.30,28.94,15,8,0,0.00
2013-1-25,47,28,14,38,25,13,96,87,69,29.00,28.87,10,2,0,0.00
2013-1-26,48,31,19,39,28,18,97,88,70,29.01,28.77,18,8,0,0.00
2013-1-27,41,38,36,41,38,34,100,97,84,28.77,28.48,17,6,0,0.00
2013-1-28,42,38,35,42,38,35,100,100,100,28.64,28.35,5,0,0,0.00
2013-1-29,39,34,33,39,34,32,100,99,95,28.49,28.35,14,8,0,0.00
2013-1-30,33,23,16,32,22,15,100,95,90,28.70,28.43,18,9,0,0.00
2013-1-31,10,6,2,6,4,0,92,89,84,29.18,28.85,19,12,0,0.00